Regional Weather Roundup
Issued by NWS

Home | Current Version | Previous Version | Graphics & Text | Print | Product List | Glossary On
Versions: 1 2 3 4 5 6 7 8 9 10 11 12 13 14 15 16 17 18 19 20 21 22 23 24 25 26 27 28 29 30 31 32 33 34 35 36 37 38 39 40 41 42 43 44 45 46 47 48 49 50
000
ASUS43 KLMK 251610
RWRKY
KENTUCKY REGIONAL WEATHER ROUNDUP
NATIONAL WEATHER SERVICE LOUISVILLE KY
1200 PM EDT WED MAY 25 2016

NOTE "FAIR" INDICATES FEW OR NO CLOUDS BELOW 12,000 FEET
WITH NO SIGNIFICANT WEATHER AND/OR OBSTRUCTIONS TO VISIBILITY.

KYZ001>023-026-027-061>063-070>075-251700-
WESTERN AND SOUTH CENTRAL KENTUCKY

CITY           SKY/WX    TMP DP  RH WIND       PRES   REMARKS
PADUCAH        CLOUDY    68  65  90 E7        30.09R
HENDERSON      CLOUDY    77  64  65 SW12      30.09R
OWENSBORO      CLOUDY    78  68  71 SW8       30.11R
HOPKINSVILLE   CLOUDY    77  65  68 S8        30.11F
BOWLING GREEN  CLOUDY    77  63  61 S13       30.15R
GLASGOW        PTSUNNY   76  61  59 SW13G21   30.16S
$$

KYZ024-025-028>034-038-045-046-053-251700-
NORTH CENTRAL KENTUCKY

CITY           SKY/WX    TMP DP  RH WIND       PRES   REMARKS
LOUISVILLE/SDF CLOUDY    77  61  57 SW5       30.11S
LOUISVILLE/LOU CLOUDY    74  61  63 SW6       30.12S
FORT KNOX      MOSUNNY   77  61  59 S10       30.11R
$$

KYZ035>037-039>044-047>052-055>060-089>105-251700-
NORTHEAST KENTUCKY

CITY           SKY/WX    TMP DP  RH WIND       PRES   REMARKS
LEXINGTON      CLOUDY    74  60  61 S8        30.16S
COVINGTON      CLOUDY    73  58  59 S9        30.13F
FRANKFORT      CLOUDY    75  59  57 S9        30.14S
$$

KYZ054-064>069-076>088-106>120-251700-
SOUTHEAST KENTUCKY

CITY           SKY/WX    TMP DP  RH WIND       PRES   REMARKS
JACKSON        SUNNY     78  58  49 CALM      30.21S
LONDON         CLOUDY    76  55  48 SW8       30.21S
SOMERSET       CLOUDY    72  59  64 S3        30.20F
MIDDLESBORO    CLOUDY    75  57  53 S7        30.23F
MONTICELLO     CLOUDY    77  63  61 VRB5      30.20F
$$





USA.gov is the U.S. government's official web portal to all federal, state and local government web resources and services.